Погода в Джаландхаре

Индия     31°19′22″N   75°34′57″E
темп.,
°C
ветер,
м/с
пор.,
м/с
влажн.,
%
обл.,
%
осадки,
мм/ч
давл.,
гПа
погр.,
м
25 января, пн
пн2523:30+9юз11610 0.0 101822
02:30+8сз11580 0.0 101728
05:30+7сз12600 0.0 101730
08:30+10з11620 0.0 101831
11:30+18зсз11420 0.0 1018456
14:30+21ссз33370 0.0 10161198
17:30+17ссв23510 0.0 101541
20:30+12ссв12640 0.0 101725
26 января, вт
вт2623:30+10сз12680 0.0 101825
02:30+9ссз12650 0.0 101725
05:30+8сз12730 0.0 101729
08:30+9ссз12640 0.0 101834
11:30+18сз22340 0.0 1017480
14:30+20ссз22270 0.0 10141187
17:30+16с12430 0.0 101429
20:30+12ссз23460 0.0 101631
27 января, ср
ср2723:30+9с12490 0.0 101732
02:30+8ссз22540 0.0 101633
05:30+7сз22560 0.0 101633
08:30+8сз22510 0.0 101759
11:30+18сз34280 0.0 1016465
14:30+21сз34230 0.0 10141145
17:30+16с23360 0.0 101337
20:30+11сз22400 0.0 101628
28 января, чт
чт2823:30+8ссв11450 0.0 101724
02:30+7ссз11500 0.0 101625
05:30+6сз12550 0.0 101526
08:30+9зсз11530 0.0 101725
11:30+18зсз11320 0.0 1017471
14:30+21сз23220 0.0 10151303
17:30+16ссв23340 0.0 101549
20:30+10зсз01480 0.0 101722
29 января, пт
пт2923:30+8ссв11510 0.0 101924
02:30+7с11550 0.0 101822
05:30+6сз12550 0.0 101828
08:30+8с11530 0.0 101929
11:30+17сз22310 0.0 1019503
14:30+21сз34220 0.0 10161372
17:30+16с34330 0.0 101574
20:30+11сз23410 0.0 101738